www.pogodaiklimat.ru

ПОГОДА в Бофорте, NC

  • Прогноз погоды в Бофорте
  • Монитор погоды в Бофорте
  • Климат в Бофорте

АРХИВ ПОГОДЫ в Бофорте

Время (UTC), дата Ветер
(напр.,м/с)
 
Видим.   Явления Облачность Т
(С)
Тd
(С)
f
(%)
Тe
(С)
Тes
(С)
Комфортность

P
(гПа)

Po
(гПа)
Тmin
(С)
Tmax
(С)
R
(мм)
SD
(см)
05:12 24.06 ЮВ  16 км    8/8 450 м  +24.4  +21.7  85  +31  +31  очень
душно 
  1014.1         
05:25 24.06   16 км    8/8 600 м  +24.4  +21.7  85  +31  +31  очень
душно 
  1013.7         
05:58 24.06 В  16 км    8/8 480 м  +24.4  +21.7  85  +31  +31  очень
душно 
1014.1  1013.7         
06:08 24.06   16 км    8/8 540 м  +24.4  +21.7  85  +31  +31  очень
душно 
  1013.4         
06:16 24.06   16 км    8/8 540 м
[средняя] 
+24.4  +21.7  85  +31  +31  очень
душно 
  1013.4         
06:49 24.06   16 км    5/5 540 м  +24.4  +21.7  85  +31  +31  очень
душно 
  1013.1         
06:58 24.06   16 км    ясно  +23.9  +21.7  88  +31  +31  очень
душно 
1013.7  1013.4         
07:58 24.06   16 км    5/5 480 м  +22.8  +21.1  90  +30  +30  очень
душно 
1013.5  1013.1         
08:22 24.06   16 км    8/8 540 м  +22.8  +21.1  90  +30  +30  очень
душно 
  1013.1         
08:41 24.06   16 км    5/5 540 м  +22.8  +21.1  90  +30  +30  очень
душно 
  1013.1         
08:58 24.06   16 км    8/8 600 м  +22.8  +21.1  90  +30  +30  очень
душно 
1013.7  1013.1         
09:22 24.06   16 км    5/5 600 м  +22.8  +21.1  90  +30  +30  очень
душно 
  1013.4         
09:58 24.06   16 км    ясно  +24.4  +22.8  91  +32  +32  очень
душно 
1014.1  1013.7         
10:58 24.06   16 км    ясно  +26.7  +22.2  76  +35  +36  очень
душно 
1014.2  1013.7  +22.2  +26.7     
11:23 24.06 С  16 км    8/8 540 м  +26.7  +22.2  76  +35  +35  очень
душно 
  1013.7         
11:58 24.06 СЗ  16 км    5/5 510 м  +26.1  +21.7  77  +34  +35  очень
душно 
1014.5  1014.1         
12:58 24.06   16 км    ясно  +27.8  +21.7  69  +36  +46  очень
душно 
1014.8  1014.4         
13:58 24.06 нст  16 км    2/2 690 м  +27.8  +22.8  74  +37  +45  очень
душно 
1014.9  1014.4         
14:58 24.06 ЮЗ  16 км    2/2 1470 м  +30.0  +21.1  59  +38  +52  опасность
солнечного
удара 
1014.7  1014.4         
15:58 24.06 ЮВ  16 км    ясно  +29.4  +22.8  68  +39  +51  опасность
солнечного
удара 
1014.5  1014.1         
16:58 24.06 Ю  16 км    ясно  +29.4  +22.2  65  +38  +51  опасность
солнечного
удара 
1014.3  1013.7  +25.6  +30.0     
17:58 24.06 Ю  16 км    ясно  +30.0  +21.1  59  +38  +49  очень
душно 
1014.0  1013.4         
18:58 24.06 ЮВ  16 км    ясно  +30.0  +22.8  65  +40  +50  очень
душно 
1013.5  1013.1         
19:58 24.06 ЮВ  16 км    ясно  +29.4  +21.7  63  +37  +44  очень
душно 
1012.9  1012.4         
20:58 24.06 Ю  16 км    ясно  +28.3  +21.7  67  +36  +41  очень
душно 
1012.6  1012.1         
21:58 24.06 Ю  16 км    ясно  +27.8  +22.2  72  +36  +38  очень
душно 
1012.6  1012.1         
22:58 24.06 Ю  16 км    ясно  +26.7  +22.2  76  +35  +36  очень
душно 
1012.6  1012.1  +26.7  +30.6     
23:58 24.06 Ю  16 км    ясно  +26.7  +21.7  74  +34  +34  очень
душно 
1012.6  1012.1         
00:58 25.06 Ю  16 км    ясно  +26.7  +21.1  71  +34  +34  очень
душно 
1013.1  1012.7         
01:58 25.06 ЮЗ  16 км    ясно  +26.7  +22.8  79  +35  +35  очень
душно 
1013.6  1013.1         
02:58 25.06 ЮЗ  16 км    ясно  +26.7  +23.9  85  +37  +37  очень
душно 
1013.7  1013.4         
03:58 25.06 ЮЗ  16 км    ясно  +26.7  +24.4  87  +37  +37  очень
душно 
1013.3  1012.7         
04:58 25.06 ЮЗ  16 км    ясно  +26.7  +24.4  87  +37  +37  очень
душно 
1012.6  1012.1  +26.1  +26.7     
05:58 25.06 ЮЗ  16 км    ясно  +26.7  +24.4  87  +37  +37  очень
душно 
1011.9  1011.4         
06:58 25.06 ЮЗ  16 км    ясно  +26.7  +24.4  87  +37  +37  очень
душно 
1011.4  1011.0         
07:58 25.06 Ю  16 км    ясно  +26.7  +24.4  87  +37  +37  очень
душно 
1010.9  1010.4         
08:58 25.06 ЮЗ  16 км    ясно  +26.7  +24.4  87  +37  +37  очень
душно 
1011.4  1011.0         
09:58 25.06 З  16 км    2/2 420 м  +27.2  +24.4  85  +38  +38  очень
душно 
1011.8  1011.4         
10:58 25.06 З  16 км    ясно  +27.8  +22.8  74  +37  +37  очень
душно 
1012.4  1012.1  +26.7  +27.8     
11:58 25.06 З  16 км    ясно  +28.9  +22.8  70  +38  +40  очень
душно 
1012.8  1012.4         
12:58 25.06 СЗ  16 км    ясно  +30.0  +21.7  61  +38  +40  очень
душно 
1012.8  1012.4         
13:58 25.06 СЗ  16 км    ясно  +31.1  +20.6  54  +38  +43  очень
душно 
1013.1  1012.7         
14:58 25.06 СЗ  16 км    ясно  +32.2  +18.3  44  +37  +42  очень
душно 
1013.0  1012.4         
15:58 25.06 СЗ  16 км    ясно  +32.8  +19.4  45  +38  +46  очень
душно 
1013.0  1012.7         
16:58 25.06 З  16 км    ясно  +33.9  +20.0  44  +40  +47  очень
душно 
1013.0  1012.4  +27.8  +33.9     
17:58 25.06 ЮЗ  16 км    ясно  +31.7  +23.3  61  +42  +49  опасность
перегрева 
1012.7  1012.4         
18:58 25.06 ЮЗ  16 км    2/0 2100 м
[средняя] 
+31.7  +22.2  57  +41  +42  опасность
перегрева 
1012.5  1012.1         
19:58 25.06 ЮЗ  16 км    ясно  +30.6  +22.8  63  +40  +41  очень
душно 
1012.4  1012.1         

 

Местоположение метеостанции Michael J Smith Field Airport: широта 34.7336 долгота -76.6606 высота над уровнем моря 3 м.

В архиве по умолчанию представлена погода в Бофорте за последние 1-2 суток. Обновление информации о фактической погоде в базе происходит ежечасно! Архивные данные за месяц целиком и за предыдущие месяцы Вы можете получить, выбрав интересующий диапазон дат из раскрывающегося списка и нажав кнопку "Ввод!".

Внимание! Архив погоды МЕТАР в базе сайта хранится не более 60 дней. Нет смысла пытаться выбрать более раннюю дату.

Внимание! Время в таблицах - всемирное. Для получения местного времени необходимо прибавить поправку, которая в Бофорте равна -5 ч.

Ветер - указаны скорость ветра в м/с и направление, откуда дует ветер: С - северный, СВ - северо-восточный, В - восточный, ЮВ - юго-восточный, Ю - южный, ЮЗ - юго-западный, З - западный, СЗ - северо-западный.
Видимость - горизонтальная дальность видимости в метрах или километрах. При видимости от 1 до 10 км при отсутствии осадков обычно наблюдается дымка, при ухудшении видимости до 1 км и менее - туман. В сухую погоду видимость может ухудшаться дымом, пылью или мглою.
Атмосферные явления - указаны явления, наблюдавшиеся в указанный момент времени.
Облачность - указаны через наклонную черту верхняя и нижняя облачность в баллах и высота нижней границы облаков в метрах. Внимание: облачность, как и прочие метеорологические величины в США измеряются автоматическими метеостанциями. Указанные значения в баллах носят условный характер и показывают процент времени, в течение которого, в среднем, лазерный луч высотомера отражался от облаков обратно.
T - Температура воздуха - температура, измеренная на высоте 2 м над землей.
Td - Температура точки росы - температура, при понижении до которой содержащийся в воздухе водяной пар достигнет насыщения.
f - Относительная влажность воздуха - влажноcть воздуха, измеренная на высоте 2 м над землей.
Te - Эффективная температура - температура, которую ощущает одетый по сезону человек в тени. Характеристика душности погоды. При расчете учитывается влияние влажности воздуха и скорости ветра на теплоощущения человека.
Tes - Эффективная температура на солнце - температура, которую ощущает человек, с поправкой на солнечный нагрев. Характеристика знойности погоды. Зависит от высоты солнца над горизонтом, облачности и скорости ветра. Ночью, в пасмурную погоду, а также при ветре 12 м/с и более поправка равна нулю.
P - Атмосферное давление - приведенное к уровню моря атмосферное давление.
Po - Атмосферное давление - измеренное на уровне метеостанции атмосферное давление.
Tmin - Минимальная температура - минимум температуры воздуха на высоте 2 м над землей.
Tmax - Максимальная температура - максимум температуры воздуха на высоте 2 м над землей.
R - Количество осадков - Количество выпавших осадков за 3 или 6 часов, мм.
SD - Снежный покров - Высота снежного покрова, см.